Wind_Speed
5 2 1 3 4 4 4 4 2 0 1 4 5 5 6 6 6 7 8 9 6 4 5 6 7 8 10 10 9 16 19 14 14 16 19 24 23 23 25 25 24 21 21 24 26 24 23 22 20 20 25 30 35 35 35 37 38 39 38 36 35 34 38 41 43 44 38 34 35 35 37 38 36 36 36 36 37 35 36 33 29 29 31 31 31 30
4 3 1 5 5 5 5 4 1 1 3 4 4 5 6 5 6 8 8 10 7 2 5 6 6 7 8 8 10 14 12 10 13 14 18 24 23 21 22 23 24 22 22 22 24 24 21 20 20 19 19 24 33 38 39 40 41 40 39 37 34 33 35 36 40 41 36 35 38 37 38 40 38 36 35 34 34 34 35 33 30 29 31 32 33 32
4 1 4 6 4 2 4 4 0 1 3 3 4 4 4 4 5 6 6 8 7 2 5 6 5 6 7 7 8 9 7 10 16 17 19 24 24 23 21 21 23 23 22 22 24 28 27 25 24 23 20 20 28 37 41 42 42 40 38 37 32 29 29 28 31 34 32 35 39 39 39 40 39 35 33 33 33 33 34 33 32 30 32 33 34 35
3 3 7 5 4 4 4 5 3 3 3 3 4 3 4 5 4 5 4 7 7 3 4 5 4 5 6 5 6 7 7 10 14 13 14 15 15 17 19 20 21 22 24 24 24 27 30 28 26 28 27 22 23 34 42 42 42 41 39 36 30 25 23 21 21 23 25 31 37 40 40 41 39 33 30 31 32 33 34 34 34 32 33 35 36 36
2 7 5 5 5 4 4 5 6 5 4 4 4 4 4 5 6 6 7 8 6 4 4 4 5 4 4 6 5 8 11 12 15 20 22 24 24 25 29 31 31 28 26 26 26 28 30 31 29 30 31 28 23 28 39 43 42 42 40 35 29 25 23 21 19 19 23 31 39 42 42 41 39 35 34 34 35 36 36 36 37 35 33 34 36 37
4 5 3 5 5 6 5 4 4 3 3 4 4 5 6 7 8 8 9 8 5 4 4 5 5 4 4 6 5 6 7 9 14 17 18 24 28 30 31 32 35 35 32 30 27 26 28 32 33 33 33 33 28 26 34 42 43 41 41 36 31 29 27 24 21 21 25 34 41 45 45 44 43 43 42 39 38 38 38 38 39 36 33 33 35 37
3 3 5 4 4 6 5 3 3 3 4 4 4 5 7 7 7 7 8 5 2 3 5 2 1 4 4 5 6 5 5 8 12 11 14 22 26 27 28 29 33 35 33 33 31 27 24 28 33 35 36 35 32 28 30 38 43 41 40 37 33 32 29 26 23 24 28 33 39 45 47 47 47 47 46 41 38 38 38 39 39 36 33 33 35 37
2 4 5 5 5 5 4 3 4 3 3 4 6 6 6 6 7 7 6 3 3 4 5 2 2 2 4 4 4 7 8 10 12 11 14 22 28 29 29 29 31 33 32 32 33 32 28 24 28 32 36 37 33 28 29 36 42 40 38 37 34 33 30 27 24 26 29 31 35 43 48 50 48 47 46 42 38 38 38 39 40 37 35 34 34 36
1 3 3 5 5 3 2 4 5 4 2 5 8 6 5 7 7 7 5 3 3 2 4 4 1 1 4 3 5 7 9 12 13 11 12 18 25 28 30 31 32 33 33 33 35 34 32 26 23 27 32 38 36 29 30 37 41 39 38 37 35 34 31 27 26 28 27 27 31 41 48 51 50 47 46 42 39 38 37 39 40 38 35 34 35 36
2 1 2 5 4 2 3 5 4 4 2 6 7 6 7 7 5 4 3 2 1 1 3 4 2 2 3 3 5 5 7 10 10 9 11 17 23 26 28 32 33 36 36 36 37 35 31 27 22 23 26 31 37 34 31 36 40 38 37 37 36 35 32 29 28 28 27 26 28 38 48 51 51 49 47 43 40 39 40 41 41 38 35 34 35 36
4 1 3 4 2 3 3 4 3 3 4 6 4 5 8 6 3 2 0 2 3 1 3 1 3 2 0 2 4 4 5 7 8 9 13 19 26 28 29 32 34 35 35 36 37 35 31 27 21 18 18 18 27 34 35 37 40 39 37 36 35 34 32 29 28 28 29 28 27 34 46 51 50 49 48 45 43 43 45 45 42 38 37 35 35 35
6 4 3 2 4 4 3 3 4 5 6 6 4 4 5 4 4 4 3 3 3 2 4 2 5 1 2 1 3 4 4 5 7 9 13 18 24 30 32 34 35 34 33 34 33 34 33 29 24 20 18 14 13 24 34 39 40 39 38 35 33 32 31 29 28 28 31 31 28 30 40 50 51 49 50 47 45 46 47 46 43 38 37 36 34 33
5 3 1 1 6 7 4 3 6 6 7 6 5 4 4 3 4 4 3 2 0 4 3 5 8 3 2 1 2 4 5 6 7 9 12 17 23 30 33 36 37 34 32 32 31 31 33 32 29 26 23 16 9 13 23 36 41 40 39 36 34 34 32 30 29 28 32 34 31 29 35 46 52 52 52 50 47 46 46 45 43 40 39 38 35 33
4 5 4 3 4 6 5 3 4 5 5 6 5 3 3 1 3 3 3 2 2 4 5 7 5 0 1 1 3 3 4 5 9 12 15 20 24 28 33 36 36 35 32 30 30 30 31 32 31 28 27 20 11 8 14 27 38 42 41 39 37 36 34 32 30 30 32 34 32 31 32 40 50 52 51 51 48 45 46 45 43 41 40 39 36 33
1 4 4 2 2 1 4 3 1 3 3 3 2 2 3 2 1 1 2 2 3 4 7 7 2 0 2 1 4 1 6 9 13 18 22 25 27 29 33 35 35 35 34 31 31 31 30 31 31 29 27 23 14 8 8 17 31 41 42 40 39 38 36 33 31 30 32 34 33 31 32 38 47 51 51 50 47 43 44 45 44 41 40 40 38 32
1 3 4 0 2 2 3 4 3 3 2 2 1 3 1 2 3 2 2 3 3 3 4 3 1 2 2 3 2 4 10 13 18 24 27 27 29 31 32 34 35 35 35 34 33 33 33 32 32 30 28 24 17 11 8 9 23 37 43 42 41 39 38 35 32 31 33 34 33 32 34 37 43 48 51 51 48 45 44 45 45 43 41 42 41 35
1 4 4 2 6 5 5 5 5 4 2 2 3 1 4 3 4 1 3 3 1 1 2 2 3 4 1 1 3 8 10 12 17 22 25 26 29 30 29 32 35 35 35 35 34 33 34 33 33 31 29 25 20 15 10 7 15 32 43 44 43 41 39 37 34 32 33 33 34 34 35 37 39 43 49 51 51 48 46 46 47 45 43 42 42 39
1 4 5 1 3 2 5 8 8 7 3 2 1 3 4 1 2 1 1 2 2 1 3 3 4 4 2 1 5 9 11 12 15 17 20 24 26 26 28 31 34 35 36 36 35 33 32 32 33 31 28 26 22 18 15 10 9 25 41 45 45 44 41 39 36 33 32 32 34 35 35 36 36 38 44 49 51 50 48 49 50 49 46 43 42 40
1 2 6 2 3 1 3 6 5 7 6 5 1 3 2 2 2 1 1 1 2 2 3 2 3 2 1 2 5 7 9 13 16 17 18 20 23 26 29 32 33 34 35 36 36 35 34 32 32 31 28 26 23 20 18 13 9 18 37 44 46 46 43 41 39 35 33 32 34 35 35 35 35 34 39 46 51 52 52 52 52 51 48 44 42 41
1 1 4 3 2 2 2 2 1 2 4 4 3 4 3 2 2 1 0 1 0 3 3 1 3 2 3 3 3 5 9 13 16 18 17 20 25 29 31 32 33 32 33 35 36 36 36 34 32 32 29 26 24 21 19 16 11 13 31 44 45 47 45 42 41 37 34 33 33 35 35 35 34 33 35 42 49 53 54 53 52 51 49 46 44 43
3 1 3 4 1 2 2 2 1 2 2 2 4 4 3 2 1 0 1 1 2 1 2 2 3 3 3 3 3 4 10 14 16 16 16 21 28 30 31 32 32 32 33 33 34 36 37 34 32 32 30 27 24 22 20 18 14 12 26 42 45 47 48 44 42 38 35 34 34 35 36 36 35 34 34 39 46 52 54 53 52 51 49 47 45 44
1 0 2 3 3 2 2 3 4 4 2 2 2 1 0 1 2 2 1 2 0 2 2 2 3 5 4 3 2 6 10 13 18 18 16 23 30 31 32 32 31 32 33 32 33 36 37 35 34 33 32 28 24 22 20 19 16 12 22 40 44 47 50 46 42 39 36 35 35 35 35 36 35 34 35 37 42 49 53 53 52 51 49 48 46 45
2 2 0 2 2 3 3 5 8 7 6 5 2 0 1 2 3 4 2 3 2 1 3 1 2 5 3 2 3 10 14 17 22 22 18 23 30 31 33 34 33 32 31 31 35 36 36 35 34 34 33 31 26 23 22 20 17 12 18 35 43 46 50 48 42 39 38 37 36 36 35 34 34 35 36 37 40 45 51 53 52 51 50 49 47 47
1 2 1 2 1 4 4 4 4 4 5 5 2 1 1 1 1 4 4 1 1 2 1 0 3 4 1 3 9 16 21 24 26 26 23 24 28 31 33 35 34 34 34 35 37 38 36 35 34 33 32 31 28 24 22 22 18 12 14 29 41 46 49 50 45 40 40 40 37 36 35 34 34 34 36 38 39 43 48 51 52 52 52 50 48 48
1 1 1 2 2 0 1 0 2 1 3 2 1 2 1 1 3 1 1 1 1 1 1 1 4 4 4 7 13 17 21 23 26 30 29 25 27 30 32 33 33 33 36 39 40 40 37 34 33 33 31 30 29 25 23 22 18 14 12 21 37 46 48 49 47 42 41 40 38 38 36 35 34 34 36 38 39 41 44 49 51 52 52 51 49 49
1 1 1 1 3 3 2 3 3 1 1 1 1 2 2 1 2 1 1 1 2 1 2 2 4 7 10 12 14 16 17 20 26 32 33 29 29 30 31 33 33 32 35 39 39 38 36 34 34 33 31 29 27 25 22 21 19 16 13 17 31 44 46 47 47 45 41 41 40 39 38 36 35 36 37 38 39 39 41 45 50 52 53 52 50 50
2 1 1 3 3 3 5 6 2 4 3 1 1 2 3 2 0 2 2 1 3 3 3 3 4 9 14 15 15 16 18 19 21 26 31 33 32 32 33 33 34 35 38 38 35 35 36 37 36 33 31 30 27 24 21 20 18 16 14 19 30 40 45 46 48 46 42 41 41 41 40 39 37 37 38 39 39 38 38 42 49 53 53 52 51 51
3 2 3 5 6 7 7 5 1 6 4 3 3 2 4 3 1 3 1 3 3 3 3 4 7 11 13 14 15 17 18 17 17 21 28 33 33 33 33 33 35 38 38 37 38 40 38 38 37 35 32 31 27 23 20 18 17 14 12 21 32 39 42 44 45 44 41 40 42 43 42 40 38 37 39 40 39 38 38 40 45 50 52 52 51 51
4 2 5 4 5 5 2 4 7 7 3 4 5 3 4 3 4 4 5 6 4 2 4 8 11 12 12 13 14 17 19 18 20 25 29 32 33 32 32 34 37 39 39 41 46 46 40 38 38 37 34 32 27 23 18 16 15 12 10 18 31 39 41 40 39 40 40 42 43 44 41 38 37 37 39 41 40 38 38 39 42 47 50 53 53 52
4 2 5 4 6 3 6 8 8 8 4 3 4 4 5 4 4 6 7 6 6 6 7 9 11 11 10 10 13 19 25 25 26 29 32 32 32 32 33 36 37 40 43 46 47 45 42 41 39 37 35 32 26 22 17 14 13 11 9 15 27 36 37 35 32 33 37 40 42 41 39 37 37 37 39 40 39 38 38 39 42 44 48 52 55 53
3 3 4 1 4 3 6 7 6 7 6 4 1 4 3 2 3 4 4 3 3 4 7 7 8 9 9 12 17 23 29 29 25 27 32 32 32 34 36 36 37 38 41 42 43 44 45 43 40 37 36 31 24 21 16 12 11 10 9 14 25 33 34 31 29 30 34 38 39 39 38 37 36 38 40 41 38 36 37 40 42 44 45 50 54 54
2 3 3 3 3 3 5 9 6 3 2 3 4 6 7 5 4 4 5 3 2 3 7 8 8 8 10 15 19 22 26 25 22 25 30 31 33 36 36 37 39 40 41 43 45 46 46 44 42 38 33 26 21 20 16 13 11 10 11 14 21 29 32 33 33 32 34 37 37 37 36 36 36 38 41 42 39 36 36 39 42 44 45 47 51 53
2 0 3 1 1 4 2 8 7 1 2 2 2 5 6 5 4 4 5 3 3 2 5 8 8 9 11 14 15 18 19 18 21 27 28 29 34 38 37 38 41 43 45 46 46 46 44 43 41 33 23 17 19 19 16 15 11 10 13 15 18 25 29 30 30 28 29 31 33 34 34 35 37 39 42 42 40 37 36 37 40 42 45 46 47 50
2 1 2 1 1 4 1 7 4 0 1 3 3 1 3 5 3 5 7 4 4 3 2 4 8 10 11 11 13 17 19 20 25 30 28 28 34 38 40 42 44 46 47 46 46 45 43 41 35 21 11 13 17 17 15 15 12 11 14 15 18 23 26 26 24 22 23 25 28 31 33 36 39 41 43 44 42 40 39 39 39 40 43 46 47 49
3 3 2 0 0 2 2 5 0 2 2 4 4 3 3 4 3 4 6 4 5 3 5 6 9 11 12 13 16 21 26 31 32 27 25 31 37 39 42 45 45 45 46 45 45 45 43 41 31 13 6 10 13 14 15 15 12 12 16 18 18 21 24 25 25 23 24 25 27 31 35 38 41 43 43 44 43 41 41 42 40 39 41 45 47 48
3 2 1 1 1 1 2 2 1 2 1 2 3 2 3 3 0 3 4 3 4 4 8 9 10 12 13 17 21 24 31 35 28 20 26 38 44 43 43 43 43 44 45 44 43 45 43 38 26 11 2 7 12 12 14 15 10 10 17 20 18 19 22 25 26 26 27 27 28 32 36 39 41 42 41 42 42 40 41 43 41 38 40 44 46 47
5 3 1 2 1 1 1 1 2 2 3 4 4 4 3 3 3 1 1 5 5 6 11 9 10 13 13 17 23 27 31 29 17 17 34 45 46 45 43 42 43 44 45 43 42 43 39 32 22 12 4 4 10 11 12 13 8 8 16 21 20 20 21 22 24 26 28 28 28 31 35 37 38 40 40 40 41 41 41 41 40 38 39 42 44 46
6 4 3 1 1 2 1 1 1 1 3 4 5 7 6 7 6 4 2 4 5 10 16 10 8 13 12 15 22 25 24 18 9 16 37 47 46 46 44 43 44 46 45 43 42 41 36 31 25 16 7 1 5 7 9 11 8 7 15 20 20 20 19 19 22 24 24 24 25 28 33 35 33 34 37 37 37 38 38 38 39 40 39 41 42 42
6 4 4 4 2 2 2 1 1 2 4 5 7 8 9 9 5 2 2 2 5 13 20 13 10 14 13 15 21 18 14 11 7 16 35 45 45 44 42 43 45 46 45 42 40 40 35 32 30 21 11 5 4 2 7 9 7 6 12 16 16 16 19 22 23 20 20 20 22 25 29 33 32 30 32 35 35 34 35 37 39 38 36 36 37 37
5 4 4 4 2 2 1 1 2 3 4 6 6 6 10 8 4 5 4 3 7 17 22 17 14 17 16 17 19 12 7 7 10 21 35 41 43 44 43 43 43 44 44 43 42 41 36 33 33 29 21 15 9 1 6 9 7 6 9 12 12 17 23 23 17 12 13 15 20 24 26 30 32 29 28 32 34 34 34 34 33 31 32 33 32 32
3 3 3 3 1 2 1 1 3 2 3 6 5 4 10 7 3 5 4 6 13 20 22 20 19 19 18 18 16 11 12 17 21 27 35 40 43 45 45 44 44 43 43 43 43 41 37 35 35 33 29 24 17 7 3 6 6 6 8 10 12 18 24 20 11 10 11 13 21 28 28 26 26 26 24 25 29 31 30 30 29 29 30 32 32 31
1 2 2 1 1 2 1 1 3 3 3 4 3 4 9 5 1 2 6 10 16 18 20 21 20 19 19 18 16 16 20 26 30 30 34 39 43 44 45 46 46 46 44 44 44 42 39 38 37 34 30 27 25 19 9 6 8 9 9 10 11 17 23 20 12 13 13 13 19 25 25 23 22 23 25 24 24 27 28 25 25 26 27 29 30 30
2 1 2 1 1 1 1 1 2 1 2 4 2 3 5 1 3 6 9 10 13 15 19 20 19 19 20 18 17 20 23 28 32 31 33 38 41 42 45 45 44 45 44 44 44 42 40 38 36 34 32 29 28 25 20 12 9 9 9 8 8 14 23 24 20 19 17 14 15 16 17 19 21 21 24 24 23 24 25 24 23 23 24 25 26 26
1 2 1 2 1 1 1 1 1 4 5 3 1 2 1 2 1 4 5 7 12 15 18 19 19 21 21 18 18 21 23 26 31 32 33 37 41 43 44 44 44 44 43 43 42 41 39 37 33 32 32 30 26 25 25 21 14 11 10 7 2 9 20 24 24 25 24 20 17 14 10 12 17 17 18 21 24 23 22 22 23 24 25 25 24 24
4 4 3 2 2 2 3 3 4 4 3 0 4 4 2 1 3 5 5 8 13 15 16 18 19 21 21 18 18 21 22 24 28 30 31 34 39 42 43 44 44 43 42 42 40 39 38 35 31 30 31 29 26 23 24 23 19 16 12 8 5 3 12 17 18 21 21 18 16 14 9 10 15 16 15 19 23 23 22 22 23 25 27 28 28 27
5 5 3 1 1 0 2 3 3 3 2 1 4 4 2 4 5 6 7 9 13 14 14 17 19 20 20 20 19 20 21 23 26 29 29 31 36 42 43 44 45 44 43 42 40 38 38 34 30 30 30 27 25 23 23 21 19 16 13 9 8 8 6 8 11 11 9 7 7 9 10 11 14 17 17 17 16 17 18 19 21 24 26 29 31 32
3 3 2 1 0 1 0 4 3 3 4 4 4 4 2 5 5 6 7 9 11 12 13 15 18 19 19 20 20 20 19 22 25 28 29 30 34 40 42 43 44 43 42 41 39 38 38 36 33 32 30 27 25 24 22 20 17 15 14 10 7 9 10 7 3 2 4 5 1 5 10 12 14 16 17 16 13 10 10 12 16 19 22 26 31 35
1 2 1 1 1 1 3 7 7 6 8 5 2 3 1 4 5 5 7 8 10 12 13 15 18 18 18 20 21 19 18 21 25 27 28 29 32 37 41 41 41 42 42 40 39 39 39 38 35 32 30 28 26 23 20 19 16 13 11 10 8 6 6 7 7 6 6 6 5 4 6 11 13 14 14 14 14 12 11 11 11 13 14 17 22 29
3 2 1 1 1 1 3 6 7 6 8 5 2 4 1 3 4 6 7 9 10 12 14 16 18 17 17 19 22 20 17 20 24 25 26 28 29 33 39 40 39 40 41 40 40 39 39 39 37 34 31 28 25 22 20 18 16 12 9 8 8 7 4 4 5 5 5 5 5 5 5 6 9 11 13 13 13 13 13 13 12 13 12 12 16 21
2 1 1 2 1 2 3 6 5 3 5 5 3 5 2 2 4 7 8 10 11 12 14 17 18 17 16 18 21 22 18 19 22 23 24 26 27 30 35 38 39 39 40 39 39 38 38 39 38 36 33 30 25 21 19 17 15 12 8 7 7 6 6 4 3 2 2 2 3 3 3 3 4 7 10 11 11 10 11 12 13 14 14 13 15 19
3 4 4 4 2 4 6 7 6 4 5 5 4 5 3 2 4 6 9 11 11 11 13 17 18 18 16 16 20 23 20 19 21 23 24 25 26 28 32 36 37 38 38 38 38 38 38 39 38 38 37 34 28 23 19 16 14 12 8 6 5 5 4 4 3 1 1 1 2 2 1 1 1 3 5 7 9 10 11 11 12 13 14 14 15 17
Wind_Direction
162 138 326 226 240 252 256 288 304 349 318 304 309 298 288 293 288 283 283 281 291 301 276 268 276 276 279 284 283 284 288 295 295 294 291 288 287 286 285 286 280 267 263 258 250 253 258 256 256 252 243 235 231 229 226 224 222 221 222 221 218 219 222 223 223 218 213 215 217 219 220 218 216 214 214 215 216 220 224 225 223 217 214 212 209 208
80 89 270 230 228 240 264 297 338 338 315 304 293 289 288 283 278 280 281 289 303 300 278 296 312 302 291 291 292 289 288 286 280 275 274 276 278 281 279 281 282 279 279 275 263 255 249 253 261 261 254 239 231 228 225 224 223 222 222 222 220 218 221 225 228 225 219 217 218 218 219 216 212 208 210 215 216 218 222 223 222 219 215 212 210 208
27 51 257 248 252 284 295 299 302 264 308 305 291 299 299 280 280 286 281 298 316 322 293 314 330 301 285 280 279 278 269 265 272 270 269 272 276 279 281 284 290 292 288 282 275 265 253 253 261 263 263 251 237 230 227 225 223 221 222 223 221 219 221 227 232 230 224 222 222 221 221 216 211 207 209 215 217 218 221 223 223 221 217 213 211 210
9 263 258 280 323 359 335 318 359 10 352 332 312 315 296 297 318 310 304 316 321 310 282 304 323 297 292 301 289 293 303 296 303 317 316 313 310 310 323 333 327 317 304 291 282 271 256 249 253 259 260 257 245 233 227 224 221 219 220 220 217 214 215 216 224 229 226 225 223 219 218 215 213 213 214 216 220 222 223 223 224 222 218 214 212 211
273 253 270 342 354 11 3 347 11 19 357 323 296 291 289 308 321 310 313 320 319 308 290 334 348 309 320 341 321 321 328 332 355 13 13 9 9 6 5 4 1 355 340 318 299 281 260 245 244 249 252 251 248 238 229 224 221 219 218 217 211 208 209 208 216 225 222 221 217 212 210 208 208 209 209 210 215 219 220 221 222 221 218 215 213 211
272 272 350 18 2 13 20 353 9 31 347 315 280 272 287 305 310 309 319 324 337 329 311 8 3 291 313 333 305 318 337 356 17 26 19 11 11 11 8 4 2 3 360 349 333 308 277 255 246 243 244 247 244 241 235 227 222 220 217 213 210 210 212 212 220 225 222 219 214 211 208 206 205 203 202 206 210 214 218 220 221 220 218 218 215 211
265 342 37 67 25 18 21 338 338 31 4 305 274 283 294 305 306 306 314 320 333 300 290 339 298 268 313 312 296 333 7 15 18 20 15 10 7 5 4 1 359 357 355 352 351 343 314 279 262 248 240 242 242 240 238 228 221 218 214 210 211 215 215 214 220 223 224 221 216 214 213 211 208 205 204 204 209 215 218 219 221 220 218 218 217 213
234 5 28 57 36 28 22 329 295 352 4 281 286 308 308 302 296 291 292 285 263 285 302 290 190 259 303 294 327 10 26 19 13 12 11 6 0 358 357 356 355 353 347 345 348 352 345 317 289 268 246 239 240 237 231 224 219 215 211 210 212 216 215 213 214 219 224 225 219 215 214 213 211 212 211 206 208 214 216 217 220 221 218 217 217 217
276 28 29 62 46 30 330 290 291 340 350 274 293 307 301 290 282 278 269 263 271 293 309 309 70 94 273 297 6 23 31 18 6 5 5 359 355 353 351 349 348 346 342 342 345 347 350 343 319 297 270 246 237 234 227 219 216 212 209 209 212 214 213 211 212 218 226 229 223 216 214 212 211 215 217 213 209 209 212 216 219 221 220 217 217 218
337 66 101 98 66 328 285 283 312 13 309 277 295 306 310 304 282 272 243 236 325 336 277 294 58 75 287 334 6 15 32 15 354 355 355 350 351 350 346 344 342 340 338 338 340 340 342 347 340 323 300 259 235 229 224 215 210 208 205 205 208 212 212 211 214 222 231 234 225 217 215 213 213 215 217 215 211 208 210 214 216 218 221 221 219 219
333 354 65 76 33 288 286 304 344 27 327 313 338 331 327 330 331 350 164 130 70 339 262 224 95 101 270 13 21 31 40 13 350 350 350 347 349 347 344 341 337 336 334 332 335 334 332 337 342 341 329 286 240 223 214 209 206 203 201 202 205 210 213 214 217 226 237 239 230 221 217 215 215 215 213 211 210 210 211 213 214 216 220 222 221 220
354 23 37 45 22 355 334 334 348 1 358 9 21 353 348 345 350 13 5 39 72 265 254 29 22 13 185 171 51 54 46 27 8 354 349 346 342 340 337 336 333 331 330 328 329 331 328 328 333 338 341 328 269 229 212 206 205 202 200 203 208 213 215 217 220 229 240 240 234 229 221 217 217 218 215 212 211 212 214 215 216 216 218 219 218 218
354 14 335 31 35 30 35 0 343 348 6 19 14 18 35 7 354 11 345 356 100 248 270 359 355 342 176 157 74 42 16 16 9 356 351 344 336 334 332 331 330 328 327 326 324 325 326 325 325 327 332 337 316 262 228 211 206 205 206 208 213 217 217 217 223 234 242 241 236 234 228 221 220 220 217 213 211 213 217 219 219 217 215 215 214 214
340 326 338 6 15 30 67 58 346 331 351 359 354 28 70 47 9 351 311 324 297 272 303 334 343 306 210 152 109 47 358 352 354 353 348 341 333 329 328 327 326 325 324 323 322 321 322 322 320 317 321 328 334 310 260 227 213 208 210 213 215 217 218 219 225 234 239 239 236 235 234 226 220 220 218 213 210 213 217 221 222 220 217 216 214 213
26 304 312 338 316 356 71 73 336 296 314 315 325 83 101 118 108 275 257 299 300 286 306 322 344 292 283 173 142 68 345 348 347 345 341 337 333 329 326 325 324 324 323 322 321 320 320 321 319 314 312 316 324 333 297 247 225 214 211 213 215 216 217 219 224 231 235 238 236 235 236 229 222 221 221 219 217 217 219 220 221 222 222 219 217 216
136 257 256 61 53 66 56 25 354 348 327 298 37 74 65 174 164 203 238 234 266 289 296 303 301 287 248 168 140 357 351 347 340 338 339 335 331 329 327 325 325 323 322 321 321 321 321 321 320 315 310 309 311 317 318 266 234 221 213 212 215 217 218 219 224 231 235 237 236 234 236 231 225 224 224 223 221 220 222 222 221 222 224 222 219 218
24 282 263 59 47 52 66 40 13 4 318 311 35 22 275 226 156 173 281 267 310 316 284 290 297 316 346 194 332 351 347 339 335 335 335 331 328 327 326 325 324 322 321 321 320 321 322 322 321 316 308 305 303 299 302 288 239 226 218 214 215 217 218 218 222 229 233 235 234 232 234 233 229 226 225 224 222 221 220 222 223 224 225 226 224 221
182 286 287 83 69 40 71 65 36 13 26 103 26 289 288 345 104 115 293 311 352 245 271 295 283 299 357 295 323 343 336 331 334 330 327 327 327 326 324 323 322 321 320 321 321 322 322 323 323 319 310 301 296 291 288 289 250 227 221 218 217 216 217 217 219 225 230 232 232 230 231 234 233 229 228 227 225 222 220 220 224 225 225 228 230 226
150 291 308 5 120 141 52 62 36 6 36 91 223 297 41 64 342 16 74 318 318 285 277 290 287 284 182 234 304 320 323 329 331 328 326 329 329 326 323 322 321 321 320 321 322 323 324 324 324 323 315 300 290 285 279 278 272 232 222 221 220 219 219 217 216 221 227 231 231 229 230 235 235 233 230 228 226 224 222 223 226 227 225 227 230 228
64 105 289 306 137 130 30 31 174 313 6 43 18 358 40 124 190 223 139 140 283 294 289 296 319 297 205 213 263 290 323 335 332 329 327 326 325 322 319 318 319 319 319 320 322 324 325 325 325 324 320 306 288 280 276 271 278 248 223 220 221 219 218 216 214 218 225 229 230 228 227 231 234 233 232 230 226 224 224 226 226 226 225 225 227 227
48 72 279 300 10 92 6 310 191 198 272 23 36 13 352 348 70 39 291 158 151 247 289 298 297 277 244 205 210 303 335 337 330 327 323 320 320 318 316 316 317 318 318 320 322 324 325 325 325 325 323 314 293 278 274 268 275 263 223 217 220 218 215 214 213 216 223 227 230 228 226 227 230 232 233 233 228 224 224 226 226 225 225 225 225 226
80 36 286 306 336 27 357 352 49 70 80 84 80 149 184 19 65 72 297 278 184 172 226 276 287 279 266 178 177 334 340 332 325 324 317 316 318 317 317 317 316 316 317 319 322 323 323 322 322 322 321 318 302 280 269 264 269 267 221 214 218 218 215 214 214 215 220 225 228 227 225 225 227 230 234 235 231 226 223 224 226 224 224 225 226 226
154 112 339 291 335 70 68 60 80 90 88 81 59 198 138 85 95 121 223 281 306 242 227 236 285 276 254 133 3 338 332 323 321 320 315 315 318 318 319 319 318 317 317 318 320 321 321 318 317 317 315 315 308 287 268 260 265 265 220 211 215 217 216 215 213 214 218 222 225 225 224 224 226 229 234 235 234 229 224 223 224 224 224 225 226 226
118 81 324 291 57 104 99 82 109 118 88 73 17 330 86 31 164 177 200 258 302 272 270 333 275 270 287 13 344 333 325 321 321 322 320 317 318 321 322 320 320 320 320 320 319 318 317 315 313 313 310 309 308 294 270 259 261 261 227 213 214 216 216 215 213 212 214 218 223 224 224 225 226 229 233 236 235 232 227 224 223 224 225 225 225 226
333 342 343 337 322 300 126 344 263 215 86 87 255 274 230 300 324 264 207 317 267 224 51 2 270 281 314 333 334 329 323 321 322 324 323 320 321 323 322 321 320 320 320 319 317 316 315 313 311 309 307 304 303 296 275 259 256 258 244 221 216 215 214 213 211 209 211 216 222 224 224 225 228 231 234 235 235 233 230 227 225 224 226 225 225 226
183 210 105 49 310 309 292 288 288 240 90 106 224 253 242 273 356 15 190 274 248 264 344 277 258 292 311 321 326 324 323 322 322 324 325 324 324 324 322 321 318 316 316 315 314 313 312 312 310 307 305 302 299 295 280 261 255 257 246 223 217 215 213 212 210 208 211 216 222 225 225 226 229 232 235 236 235 235 233 230 227 225 225 226 226 226
100 202 189 182 213 249 248 257 237 127 121 161 226 247 240 250 333 99 112 255 265 283 275 233 263 300 310 319 323 322 323 322 320 324 326 326 327 326 324 321 317 315 315 313 312 313 312 312 312 308 305 302 297 291 279 260 254 261 246 217 210 211 213 213 210 208 211 217 223 227 228 228 229 232 236 237 236 235 235 234 230 226 225 225 224 225
87 319 261 204 217 237 246 262 113 109 126 173 188 228 245 247 130 109 172 233 254 305 289 285 313 311 308 315 318 319 323 322 319 321 323 325 325 322 321 319 316 315 314 314 316 318 316 313 312 309 304 302 296 285 272 256 250 261 247 213 205 207 211 214 213 212 215 220 225 228 229 228 229 233 237 238 237 237 237 236 234 230 227 225 224 223
121 272 257 214 251 259 169 107 108 111 130 183 180 209 230 207 157 178 235 231 191 212 271 296 314 310 304 312 316 319 322 319 315 316 320 322 321 320 321 320 319 319 318 319 320 320 317 313 311 308 303 301 295 280 265 250 245 253 243 214 207 208 211 214 217 219 221 223 226 228 229 229 229 232 236 237 236 236 237 238 236 233 230 227 226 225
123 265 247 218 281 289 125 128 132 127 133 177 199 228 224 214 216 223 239 226 195 216 257 286 302 299 298 309 313 317 321 319 316 318 322 324 324 325 325 323 322 322 319 319 319 318 315 311 308 305 301 298 289 271 256 243 240 242 233 214 206 206 209 213 219 225 225 225 226 228 229 230 231 233 236 236 234 234 237 238 236 234 231 228 226 225
120 260 250 181 312 298 142 140 139 136 139 139 189 260 260 296 295 262 255 243 212 249 274 286 298 301 308 317 318 320 324 325 323 324 326 327 327 329 327 323 320 318 316 316 317 316 315 311 307 302 299 293 278 259 243 229 231 230 215 210 207 207 210 214 219 228 229 225 226 228 231 233 234 236 238 237 235 234 235 236 234 231 230 228 226 225
137 263 303 52 358 295 168 154 162 170 125 80 36 354 350 346 322 287 281 265 204 267 307 326 330 322 319 322 321 323 328 329 328 328 326 324 327 329 325 322 322 321 320 319 318 317 316 313 309 304 297 284 261 245 227 209 215 213 194 196 204 207 212 216 219 224 226 224 224 227 231 233 235 236 238 238 237 236 234 234 233 230 228 228 228 228
142 260 315 48 342 300 186 148 158 164 11 358 344 357 346 314 285 298 305 275 213 258 343 345 326 311 311 317 322 325 331 333 328 324 322 322 327 329 326 326 327 326 324 322 320 319 317 317 316 310 294 261 235 225 207 194 198 193 186 192 199 201 205 211 213 216 221 224 226 228 232 234 234 236 238 238 239 238 235 233 233 232 229 229 230 228
70 71 272 191 223 299 80 118 133 160 331 264 240 163 323 289 281 313 308 267 226 245 323 297 286 297 307 316 327 326 327 329 325 322 323 328 330 330 331 332 330 327 326 324 324 325 325 330 333 321 274 226 213 206 193 188 187 174 176 192 202 203 204 207 209 214 222 227 231 234 236 235 235 236 237 239 239 238 236 234 235 234 230 228 230 229
28 23 296 193 202 285 94 99 56 262 202 228 229 207 258 254 220 291 292 236 205 268 320 313 301 304 310 320 328 326 325 327 325 324 331 338 338 337 336 334 331 329 328 328 331 333 336 345 351 336 242 205 198 191 182 181 179 171 178 190 199 206 208 206 206 212 219 224 230 236 238 238 236 233 233 236 236 234 233 233 235 236 233 229 229 228
83 55 338 2 2 339 39 59 304 272 235 279 283 262 272 274 355 6 331 252 225 309 336 328 310 307 315 326 330 330 328 327 324 330 343 346 345 343 338 332 331 332 332 334 338 340 344 354 2 357 261 189 187 182 178 180 178 177 186 190 192 197 205 210 212 216 220 226 233 237 238 238 236 231 228 229 230 227 227 229 233 235 233 229 229 228
93 96 19 351 353 43 35 257 270 296 302 320 318 297 293 297 288 304 310 266 266 330 340 323 309 315 323 330 332 332 331 328 324 342 349 349 346 342 339 337 337 339 340 343 346 348 356 9 14 11 22 165 181 179 177 179 175 179 188 192 198 206 216 222 221 220 223 229 236 239 238 236 233 228 224 222 221 223 226 229 233 236 233 230 230 229
83 102 103 75 10 50 58 335 343 311 271 266 270 275 290 296 267 200 157 274 283 332 335 319 310 322 325 332 335 334 334 336 339 343 344 345 344 342 341 343 345 347 348 349 352 357 7 20 23 24 28 73 174 182 186 180 173 183 191 197 210 220 223 217 211 215 224 230 236 241 239 233 228 226 224 221 219 221 224 227 228 228 229 230 230 229
56 71 91 81 28 25 67 355 301 207 242 258 254 270 303 316 298 150 90 293 285 325 330 322 318 325 324 331 336 335 340 348 344 334 338 340 342 342 344 346 350 352 353 354 358 2 8 19 31 45 65 74 85 162 196 186 183 192 191 197 212 219 212 203 202 216 230 233 238 242 237 228 222 221 224 224 223 222 224 226 222 220 223 229 231 231
26 20 48 62 16 337 64 324 277 207 245 265 247 278 319 333 6 36 20 314 305 323 327 325 326 330 328 330 337 340 346 339 320 324 334 339 342 346 350 352 352 353 355 359 4 9 15 23 32 47 63 67 62 95 208 197 196 196 188 196 212 217 209 200 200 227 241 240 240 237 229 222 217 215 218 220 219 219 222 224 222 221 226 229 230 232
359 354 35 85 46 341 62 320 295 246 253 265 249 323 347 353 36 29 352 290 301 318 328 333 335 336 333 331 335 336 333 333 328 328 339 346 348 351 355 357 357 358 359 3 8 15 21 24 29 46 62 65 62 65 199 206 188 174 185 204 220 222 212 196 198 244 245 240 243 234 219 209 208 209 210 211 210 210 212 218 222 225 228 226 224 225
339 332 359 80 53 333 195 219 296 273 263 277 258 17 17 21 68 302 285 287 303 319 336 342 341 343 340 331 331 331 332 340 341 340 347 353 352 354 358 360 1 3 4 7 12 18 22 25 33 50 60 61 63 68 83 150 165 164 187 211 224 225 215 203 216 247 236 232 245 236 212 192 190 198 202 202 202 202 203 207 212 216 219 218 218 219
169 164 310 273 188 16 342 341 342 263 274 316 328 22 30 69 215 258 272 301 330 341 347 347 347 351 347 333 333 338 338 345 349 348 352 356 357 358 1 2 4 5 7 9 13 17 21 25 35 46 50 53 61 68 77 100 139 161 182 199 220 227 218 212 219 231 228 224 231 226 205 183 177 188 198 198 196 197 199 200 199 201 207 211 214 218
168 153 217 253 207 110 349 295 248 237 262 299 97 149 196 205 256 305 294 324 352 358 358 356 355 358 354 341 339 345 344 347 353 353 354 358 0 1 2 5 6 7 9 11 12 16 21 26 33 39 43 50 60 65 71 81 99 130 156 167 203 231 220 218 225 233 233 225 209 202 205 188 174 177 192 198 198 197 200 204 205 204 207 209 214 220
219 189 169 216 228 174 171 210 235 258 279 237 142 153 160 122 21 10 1 357 0 3 7 7 2 1 3 356 347 346 348 351 355 356 356 359 2 2 4 7 9 9 11 13 15 18 22 26 29 32 38 49 57 61 66 74 89 107 123 125 103 171 211 222 240 246 239 231 215 200 198 196 187 185 191 200 204 204 203 205 208 210 214 217 219 220
226 197 148 131 255 185 141 218 264 312 310 204 157 151 86 43 30 22 18 12 8 8 11 12 8 5 6 4 352 347 352 356 357 358 360 1 3 5 7 9 11 12 14 16 17 18 20 23 26 28 35 46 52 55 59 67 77 82 82 97 107 96 126 196 239 247 226 224 240 222 204 201 203 206 207 205 204 208 214 215 214 214 217 221 221 219
251 195 152 95 124 73 260 260 283 319 290 257 176 157 94 41 36 27 21 15 15 16 13 12 12 11 10 7 357 348 353 0 0 360 2 4 4 6 8 10 11 12 13 15 18 20 21 23 25 26 31 37 40 43 50 60 69 68 61 74 95 78 79 108 174 219 149 130 168 229 218 213 210 211 217 216 208 211 227 233 233 230 225 223 222 222
226 184 214 266 205 176 234 249 254 271 283 280 185 170 106 46 39 24 24 22 21 21 16 13 16 17 14 11 3 354 354 1 3 2 2 5 7 8 9 10 12 13 13 16 19 23 25 26 26 25 26 30 32 32 36 47 60 68 64 65 74 72 67 73 69 64 82 103 116 152 201 218 218 215 219 222 221 220 222 227 237 242 237 232 229 228
154 156 188 200 297 311 282 270 268 282 300 304 202 184 165 61 44 29 32 30 25 23 19 18 21 21 18 16 11 4 358 1 4 4 4 5 8 9 9 10 12 14 15 17 20 25 28 29 28 27 26 26 28 28 27 33 45 58 64 61 63 74 75 55 50 55 62 81 110 128 152 196 218 221 220 223 227 227 228 230 232 233 234 236 238 240
133 178 157 96 6 293 258 270 275 280 297 292 219 180 165 77 49 42 41 34 29 28 22 20 22 22 21 19 15 11 6 4 5 7 8 8 9 9 10 11 13 15 16 18 21 26 30 31 31 31 29 27 26 25 24 24 29 39 52 54 49 60 76 78 65 48 54 95 122 123 123 158 209 222 224 227 230 236 246 254 252 246 243 240 239 243
174 200 178 160 200 224 240 276 298 296 282 267 208 180 167 90 53 47 45 38 34 32 25 23 22 20 19 19 17 14 12 9 9 9 10 12 11 10 12 13 14 15 16 17 21 25 28 31 32 33 32 29 27 24 22 19 19 22 30 39 37 37 54 74 83 93 191 182 160 159 158 196 255 254 248 247 253 262 270 272 266 260 257 255 251 249
Height
1492 1495 1498 1498 1497 1496 1494 1492 1492 1492 1493 1493 1493 1495 1494 1494 1491 1485 1480 1475 1473 1477 1475 1472 1472 1471 1468 1465 1462 1461 1461 1461 1462 1461 1460 1460 1461 1462 1461 1461 1462 1461 1461 1461 1463 1463 1463 1462 1463 1464 1465 1467 1468 1470 1470 1470 1470 1471 1473 1475 1478 1480 1481 1484 1486 1488 1495 1499 1499 1500 1500 1501 1503 1505 1506 1505 1506 1511 1516 1521 1524 1525 1526 1527 1528 1530
1492 1497 1498 1496 1494 1493 1491 1490 1489 1490 1490 1491 1493 1494 1493 1492 1489 1482 1479 1475 1472 1476 1475 1470 1471 1471 1468 1466 1463 1462 1462 1462 1462 1461 1461 1459 1459 1460 1460 1460 1460 1460 1460 1460 1460 1460 1461 1461 1461 1462 1463 1464 1465 1466 1467 1467 1468 1469 1472 1474 1476 1478 1479 1482 1485 1486 1493 1497 1495 1494 1495 1497 1500 1502 1505 1506 1506 1509 1513 1517 1521 1523 1524 1525 1526 1528
1495 1497 1495 1492 1491 1490 1489 1489 1489 1490 1491 1492 1493 1494 1495 1491 1486 1482 1478 1475 1473 1476 1476 1471 1473 1472 1468 1465 1463 1462 1462 1462 1461 1461 1460 1459 1458 1458 1459 1459 1458 1457 1457 1458 1458 1458 1458 1459 1459 1459 1460 1461 1462 1463 1464 1464 1466 1468 1471 1473 1475 1477 1478 1482 1483 1484 1488 1491 1491 1492 1493 1494 1497 1500 1504 1506 1507 1510 1512 1515 1518 1521 1522 1523 1524 1525
1500 1497 1492 1490 1490 1490 1490 1489 1489 1491 1492 1493 1493 1495 1494 1488 1487 1487 1481 1476 1475 1475 1475 1473 1474 1472 1467 1464 1462 1461 1461 1461 1460 1460 1460 1461 1461 1461 1460 1459 1459 1458 1456 1456 1456 1456 1456 1456 1457 1457 1457 1458 1460 1461 1461 1462 1463 1466 1468 1471 1473 1475 1477 1480 1481 1482 1484 1486 1487 1490 1491 1493 1495 1498 1500 1503 1507 1510 1512 1514 1516 1518 1519 1520 1521 1522
1498 1494 1490 1490 1490 1490 1492 1490 1491 1494 1494 1494 1492 1492 1492 1487 1487 1486 1480 1476 1475 1474 1472 1472 1476 1473 1467 1466 1464 1461 1460 1460 1461 1461 1461 1461 1461 1460 1459 1458 1458 1458 1457 1456 1455 1454 1453 1454 1454 1454 1454 1455 1457 1458 1459 1459 1461 1463 1466 1469 1471 1473 1475 1477 1479 1479 1480 1482 1484 1486 1489 1492 1494 1495 1496 1498 1502 1506 1509 1511 1513 1515 1516 1517 1519 1520
1495 1491 1490 1492 1491 1491 1492 1493 1493 1495 1496 1496 1491 1487 1487 1486 1484 1483 1480 1478 1481 1481 1473 1472 1484 1481 1469 1468 1467 1463 1462 1464 1465 1464 1464 1463 1462 1460 1459 1459 1458 1457 1457 1456 1455 1453 1452 1451 1451 1452 1452 1452 1453 1455 1456 1457 1459 1461 1464 1466 1468 1470 1472 1475 1477 1477 1477 1478 1481 1483 1486 1488 1489 1490 1490 1493 1497 1501 1504 1507 1508 1511 1513 1515 1516 1517
1493 1492 1491 1492 1493 1493 1494 1495 1493 1493 1497 1498 1489 1484 1485 1484 1483 1482 1481 1483 1487 1486 1474 1472 1486 1487 1475 1469 1468 1466 1468 1468 1467 1466 1466 1465 1464 1463 1463 1462 1459 1458 1458 1457 1455 1452 1450 1449 1449 1449 1449 1449 1450 1452 1453 1455 1457 1459 1461 1463 1465 1467 1469 1472 1474 1474 1474 1475 1478 1480 1482 1484 1484 1485 1486 1489 1494 1497 1500 1503 1505 1508 1510 1511 1513 1515
1493 1493 1493 1492 1494 1495 1497 1497 1493 1492 1497 1496 1486 1484 1485 1484 1484 1482 1481 1485 1485 1482 1477 1473 1477 1484 1481 1473 1469 1470 1471 1471 1469 1468 1467 1466 1466 1465 1464 1463 1461 1460 1460 1459 1455 1450 1448 1447 1446 1446 1447 1446 1447 1448 1449 1452 1454 1457 1459 1461 1463 1465 1467 1469 1471 1471 1471 1472 1475 1478 1480 1481 1482 1483 1485 1488 1491 1494 1497 1500 1502 1505 1507 1508 1510 1512
1493 1495 1495 1493 1496 1498 1497 1496 1493 1493 1496 1493 1485 1484 1484 1482 1482 1480 1481 1483 1482 1482 1484 1478 1475 1483 1485 1475 1473 1473 1473 1475 1474 1472 1471 1470 1469 1466 1464 1463 1461 1460 1459 1457 1453 1449 1447 1446 1444 1443 1444 1444 1444 1444 1446 1448 1451 1454 1457 1459 1460 1462 1464 1466 1468 1468 1469 1470 1472 1475 1477 1478 1480 1482 1484 1486 1489 1491 1494 1496 1499 1502 1504 1506 1507 1509
1494 1495 1494 1494 1497 1498 1495 1494 1492 1493 1494 1490 1486 1484 1481 1479 1479 1479 1481 1482 1482 1486 1487 1480 1478 1485 1487 1482 1479 1478 1479 1481 1479 1475 1474 1471 1470 1469 1466 1463 1461 1459 1456 1453 1450 1447 1446 1445 1442 1441 1442 1443 1442 1441 1442 1445 1448 1451 1454 1456 1458 1459 1461 1463 1465 1466 1466 1468 1469 1472 1473 1475 1477 1479 1481 1484 1486 1488 1489 1491 1495 1498 1500 1502 1504 1506
1494 1493 1493 1494 1497 1496 1494 1493 1491 1492 1493 1487 1486 1486 1481 1479 1478 1478 1480 1481 1485 1490 1486 1481 1480 1485 1490 1489 1485 1483 1484 1485 1481 1477 1473 1469 1468 1467 1466 1464 1461 1459 1455 1451 1449 1446 1445 1444 1442 1441 1441 1442 1441 1440 1440 1441 1444 1448 1451 1454 1455 1457 1459 1461 1463 1464 1464 1465 1466 1469 1470 1472 1474 1476 1478 1480 1483 1484 1485 1487 1490 1493 1496 1497 1500 1502
1494 1494 1495 1495 1496 1495 1493 1492 1491 1491 1491 1488 1489 1490 1485 1484 1482 1480 1482 1483 1490 1492 1484 1480 1480 1483 1490 1490 1486 1485 1484 1483 1482 1479 1475 1471 1468 1466 1465 1463 1461 1459 1456 1453 1450 1446 1444 1442 1441 1440 1440 1441 1441 1440 1439 1439 1441 1444 1448 1451 1453 1454 1456 1458 1460 1462 1462 1462 1464 1466 1467 1469 1471 1472 1474 1476 1478 1480 1482 1483 1485 1488 1491 1493 1496 1499
1497 1496 1496 1496 1495 1494 1494 1495 1493 1491 1491 1491 1493 1494 1495 1498 1498 1498 1496 1492 1493 1490 1481 1480 1482 1484 1489 1488 1485 1484 1482 1481 1481 1480 1478 1475 1471 1468 1465 1462 1460 1458 1456 1453 1450 1447 1444 1442 1440 1439 1439 1439 1439 1440 1440 1439 1438 1440 1444 1447 1449 1451 1453 1455 1457 1459 1459 1460 1461 1463 1464 1466 1468 1469 1470 1473 1476 1478 1480 1481 1482 1484 1487 1489 1492 1496
1505 1500 1497 1497 1497 1495 1497 1500 1501 1498 1496 1497 1497 1498 1503 1511 1516 1516 1509 1501 1499 1492 1483 1482 1485 1487 1488 1485 1483 1483 1481 1480 1479 1478 1478 1476 1473 1469 1465 1462 1458 1456 1454 1452 1449 1446 1444 1441 1440 1439 1439 1437 1436 1437 1439 1439 1438 1437 1439 1442 1445 1447 1449 1451 1453 1455 1456 1457 1459 1461 1462 1463 1464 1466 1468 1471 1475 1478 1479 1481 1482 1483 1485 1486 1489 1493
1515 1510 1501 1500 1500 1497 1498 1500 1502 1502 1500 1499 1498 1499 1504 1511 1516 1516 1510 1507 1506 1501 1491 1486 1485 1485 1484 1482 1481 1480 1479 1478 1477 1477 1476 1474 1472 1469 1464 1460 1457 1453 1450 1448 1446 1444 1442 1440 1438 1437 1436 1435 1434 1433 1434 1437 1439 1437 1435 1438 1441 1442 1445 1447 1449 1451 1453 1454 1456 1458 1459 1460 1462 1464 1466 1470 1475 1478 1479 1480 1482 1483 1485 1486 1488 1491
1514 1512 1501 1499 1499 1497 1499 1499 1499 1500 1501 1499 1498 1501 1505 1507 1511 1511 1508 1507 1507 1507 1501 1492 1485 1481 1479 1479 1477 1476 1476 1476 1475 1474 1472 1470 1468 1465 1462 1457 1453 1450 1447 1444 1442 1440 1438 1437 1435 1433 1431 1430 1430 1431 1431 1433 1436 1437 1434 1434 1436 1438 1441 1443 1446 1448 1449 1451 1453 1455 1456 1458 1460 1463 1465 1468 1472 1475 1477 1479 1481 1483 1484 1485 1487 1490
1512 1509 1499 1498 1500 1498 1500 1500 1499 1501 1502 1500 1501 1504 1504 1504 1507 1509 1508 1505 1506 1508 1501 1491 1486 1482 1479 1479 1476 1475 1476 1475 1473 1471 1469 1468 1465 1462 1459 1455 1451 1448 1444 1441 1439 1437 1435 1433 1431 1428 1427 1426 1426 1427 1429 1429 1431 1433 1434 1432 1432 1434 1437 1439 1442 1444 1446 1448 1450 1452 1454 1455 1458 1461 1462 1464 1467 1471 1474 1476 1478 1480 1482 1484 1486 1488
1511 1509 1500 1498 1502 1501 1501 1501 1501 1501 1501 1502 1505 1504 1502 1502 1503 1508 1511 1508 1508 1509 1499 1490 1489 1487 1485 1483 1478 1477 1478 1475 1473 1470 1467 1466 1463 1460 1456 1453 1450 1445 1441 1439 1436 1434 1433 1430 1428 1425 1423 1423 1423 1424 1425 1426 1426 1428 1431 1430 1429 1430 1433 1436 1438 1440 1443 1445 1447 1449 1451 1453 1456 1458 1460 1461 1465 1469 1471 1473 1474 1476 1478 1480 1483 1486
1509 1511 1504 1499 1502 1503 1501 1502 1504 1503 1501 1503 1504 1502 1502 1504 1505 1508 1512 1510 1510 1510 1502 1492 1488 1488 1488 1485 1481 1481 1480 1476 1473 1469 1465 1462 1460 1457 1453 1450 1447 1443 1439 1436 1432 1430 1429 1427 1425 1423 1421 1420 1420 1421 1422 1422 1422 1423 1426 1428 1427 1426 1428 1432 1435 1437 1440 1442 1444 1446 1448 1450 1453 1456 1458 1459 1462 1465 1467 1469 1471 1473 1475 1477 1480 1483
1507 1513 1510 1501 1500 1503 1503 1505 1508 1507 1504 1503 1504 1504 1505 1506 1508 1510 1510 1510 1511 1510 1505 1498 1491 1488 1485 1482 1481 1482 1479 1476 1473 1469 1464 1461 1459 1456 1452 1448 1444 1441 1437 1434 1430 1427 1425 1424 1423 1421 1419 1417 1417 1417 1418 1419 1419 1418 1420 1423 1425 1424 1424 1428 1431 1433 1436 1438 1440 1443 1445 1447 1450 1453 1455 1456 1458 1461 1463 1465 1468 1469 1472 1475 1477 1479
1506 1512 1512 1505 1501 1504 1507 1507 1507 1507 1507 1506 1508 1512 1511 1508 1507 1509 1509 1508 1508 1509 1509 1506 1498 1487 1479 1478 1480 1480 1478 1475 1473 1470 1465 1461 1458 1455 1451 1446 1443 1439 1436 1432 1429 1425 1422 1421 1420 1418 1416 1414 1413 1413 1414 1414 1414 1414 1414 1417 1420 1421 1421 1424 1428 1430 1432 1435 1437 1439 1441 1444 1447 1450 1452 1453 1455 1457 1460 1462 1464 1466 1469 1472 1474 1476
1507 1510 1511 1508 1507 1509 1511 1509 1506 1507 1508 1510 1513 1515 1516 1513 1511 1511 1509 1505 1506 1508 1509 1509 1503 1488 1476 1476 1478 1478 1477 1475 1472 1470 1465 1460 1456 1452 1448 1445 1441 1437 1434 1430 1427 1424 1420 1418 1416 1415 1413 1411 1409 1408 1409 1410 1410 1410 1410 1412 1416 1418 1418 1420 1423 1426 1429 1431 1433 1435 1438 1440 1443 1446 1448 1450 1452 1454 1456 1458 1461 1464 1467 1469 1471 1474
1505 1508 1510 1511 1512 1513 1513 1510 1509 1509 1509 1512 1515 1515 1515 1515 1515 1515 1511 1507 1507 1506 1504 1507 1506 1489 1475 1475 1478 1476 1475 1473 1470 1468 1464 1459 1454 1449 1444 1441 1438 1435 1432 1429 1425 1422 1419 1416 1413 1412 1410 1408 1406 1404 1404 1405 1406 1406 1405 1407 1410 1414 1415 1417 1419 1423 1425 1427 1429 1432 1434 1437 1440 1443 1445 1446 1448 1450 1452 1455 1458 1462 1464 1466 1469 1471
1504 1507 1510 1511 1512 1514 1514 1513 1512 1511 1510 1513 1516 1515 1514 1514 1515 1515 1513 1511 1511 1507 1505 1510 1506 1487 1475 1476 1477 1475 1473 1469 1467 1465 1461 1457 1452 1447 1443 1438 1435 1432 1428 1425 1422 1419 1416 1413 1411 1409 1408 1405 1403 1401 1400 1400 1401 1401 1401 1402 1405 1409 1412 1413 1415 1419 1421 1424 1426 1428 1431 1434 1436 1439 1441 1442 1444 1446 1449 1452 1455 1459 1461 1464 1466 1469
1506 1507 1509 1513 1514 1512 1513 1514 1512 1509 1512 1516 1517 1516 1515 1514 1514 1514 1514 1515 1514 1508 1508 1513 1505 1486 1477 1477 1476 1475 1472 1466 1463 1461 1458 1454 1449 1445 1441 1437 1433 1430 1426 1422 1419 1415 1413 1411 1408 1406 1405 1403 1400 1397 1396 1396 1397 1397 1397 1398 1401 1404 1408 1410 1412 1415 1418 1420 1422 1425 1428 1430 1433 1435 1436 1438 1440 1443 1446 1449 1452 1456 1458 1460 1463 1466
1505 1507 1508 1514 1517 1515 1514 1512 1507 1507 1513 1518 1517 1516 1515 1514 1514 1514 1514 1516 1515 1509 1509 1512 1503 1488 1480 1479 1478 1476 1473 1466 1461 1456 1453 1450 1447 1443 1439 1435 1432 1428 1425 1421 1417 1413 1410 1407 1405 1402 1400 1399 1396 1394 1392 1392 1393 1393 1394 1395 1397 1401 1405 1408 1409 1411 1414 1417 1419 1421 1424 1427 1429 1431 1432 1434 1437 1440 1443 1446 1448 1451 1454 1456 1459 1462
1504 1505 1504 1508 1512 1511 1509 1505 1502 1506 1513 1517 1515 1514 1514 1514 1514 1514 1514 1515 1513 1510 1509 1506 1500 1493 1486 1482 1479 1476 1473 1468 1461 1455 1451 1446 1443 1441 1437 1433 1430 1426 1422 1418 1414 1411 1407 1403 1400 1398 1396 1395 1393 1390 1389 1388 1389 1390 1390 1391 1395 1398 1403 1406 1408 1409 1411 1414 1416 1418 1420 1423 1426 1428 1429 1431 1434 1437 1440 1442 1444 1446 1449 1452 1455 1457
1504 1505 1503 1503 1504 1502 1501 1501 1503 1507 1511 1514 1513 1512 1513 1513 1514 1514 1513 1510 1509 1510 1506 1498 1497 1498 1491 1484 1481 1477 1473 1468 1461 1456 1452 1447 1443 1440 1435 1432 1428 1423 1419 1414 1410 1406 1402 1399 1395 1393 1392 1390 1388 1387 1385 1385 1386 1387 1387 1388 1391 1396 1399 1403 1405 1407 1409 1412 1414 1415 1417 1420 1423 1425 1427 1429 1432 1435 1437 1438 1440 1443 1446 1448 1450 1453
1503 1504 1501 1500 1500 1499 1501 1504 1505 1508 1510 1511 1511 1510 1511 1512 1512 1512 1509 1507 1509 1511 1505 1498 1498 1498 1492 1485 1481 1476 1471 1467 1461 1456 1453 1448 1443 1439 1434 1429 1424 1418 1413 1409 1405 1401 1397 1394 1391 1388 1386 1385 1384 1382 1381 1381 1383 1384 1385 1385 1388 1392 1396 1400 1403 1405 1407 1409 1411 1413 1415 1418 1420 1422 1424 1426 1429 1431 1433 1435 1437 1439 1443 1446 1448 1450
1502 1503 1498 1497 1497 1497 1502 1506 1504 1506 1509 1510 1509 1509 1509 1509 1509 1508 1507 1506 1506 1506 1503 1500 1499 1496 1489 1484 1480 1474 1470 1466 1460 1455 1451 1446 1441 1436 1432 1427 1421 1415 1410 1404 1400 1396 1392 1389 1386 1383 1381 1379 1379 1378 1378 1379 1381 1381 1382 1384 1387 1390 1394 1397 1400 1403 1405 1407 1409 1411 1413 1415 1418 1420 1421 1423 1426 1428 1430 1432 1434 1436 1439 1442 1444 1446
1500 1500 1496 1497 1497 1497 1502 1506 1505 1505 1507 1507 1508 1508 1507 1507 1506 1506 1505 1504 1504 1505 1502 1500 1497 1492 1485 1480 1477 1472 1468 1463 1458 1453 1448 1443 1439 1435 1430 1425 1419 1414 1408 1402 1397 1392 1387 1383 1380 1377 1375 1373 1373 1374 1374 1376 1378 1379 1380 1382 1385 1388 1391 1394 1398 1400 1403 1405 1407 1409 1411 1413 1415 1416 1418 1420 1423 1425 1427 1428 1430 1432 1435 1438 1441 1443
1499 1499 1496 1497 1500 1498 1500 1505 1507 1506 1506 1505 1505 1505 1504 1504 1504 1504 1503 1502 1503 1503 1500 1497 1495 1489 1482 1477 1474 1470 1466 1461 1457 1452 1447 1443 1439 1434 1429 1423 1417 1411 1405 1399 1393 1387 1381 1376 1372 1369 1367 1366 1367 1369 1371 1373 1376 1378 1379 1381 1383 1386 1389 1392 1395 1398 1401 1402 1405 1406 1408 1410 1412 1413 1415 1416 1419 1422 1424 1425 1427 1430 1433 1435 1438 1441
1497 1499 1497 1499 1502 1498 1498 1504 1507 1507 1507 1507 1505 1503 1502 1502 1502 1502 1501 1501 1501 1500 1499 1498 1495 1488 1482 1478 1474 1468 1464 1461 1456 1452 1448 1443 1437 1433 1428 1421 1414 1408 1402 1396 1388 1382 1376 1370 1364 1361 1360 1360 1363 1365 1367 1371 1374 1376 1378 1380 1383 1385 1387 1390 1393 1396 1399 1401 1403 1404 1405 1407 1408 1410 1411 1413 1415 1418 1420 1422 1423 1426 1430 1433 1435 1438
1497 1498 1497 1499 1500 1499 1501 1507 1507 1507 1509 1507 1502 1500 1500 1500 1500 1500 1499 1499 1499 1497 1497 1497 1493 1487 1482 1479 1474 1468 1463 1460 1457 1452 1448 1445 1439 1432 1425 1418 1413 1406 1399 1393 1385 1378 1371 1365 1359 1356 1355 1357 1360 1363 1366 1369 1372 1374 1376 1379 1382 1384 1386 1388 1391 1394 1396 1398 1400 1402 1403 1404 1405 1406 1407 1409 1412 1414 1415 1417 1419 1422 1427 1430 1433 1434
1497 1497 1497 1498 1499 1500 1504 1508 1507 1506 1506 1502 1497 1497 1497 1497 1498 1498 1497 1497 1497 1496 1495 1493 1490 1485 1481 1477 1474 1469 1462 1458 1454 1451 1448 1445 1439 1432 1424 1417 1412 1405 1397 1390 1383 1375 1369 1362 1357 1355 1355 1357 1360 1362 1365 1368 1371 1372 1374 1377 1379 1381 1384 1386 1389 1391 1393 1395 1397 1398 1399 1400 1401 1403 1404 1406 1408 1410 1411 1413 1415 1418 1423 1427 1429 1431
1495 1497 1498 1499 1499 1501 1504 1506 1505 1503 1501 1498 1496 1496 1496 1496 1497 1498 1497 1496 1495 1494 1492 1490 1487 1482 1479 1476 1472 1468 1462 1456 1452 1450 1447 1442 1436 1431 1426 1418 1412 1405 1397 1389 1382 1375 1368 1363 1359 1357 1357 1358 1360 1363 1365 1368 1370 1371 1373 1374 1377 1379 1381 1384 1386 1388 1390 1392 1393 1394 1395 1396 1397 1399 1401 1403 1405 1407 1409 1410 1412 1415 1418 1422 1425 1427
1493 1496 1498 1499 1500 1502 1505 1506 1507 1505 1503 1500 1498 1496 1496 1496 1496 1497 1497 1496 1494 1492 1489 1487 1484 1480 1477 1474 1470 1467 1461 1453 1447 1445 1443 1439 1435 1431 1426 1419 1411 1404 1396 1389 1382 1376 1369 1365 1362 1360 1359 1360 1362 1364 1365 1367 1369 1370 1371 1373 1375 1377 1379 1382 1385 1387 1388 1390 1390 1390 1391 1391 1393 1396 1398 1400 1402 1404 1406 1408 1410 1413 1415 1419 1422 1424
1493 1495 1497 1499 1501 1503 1504 1505 1508 1509 1506 1502 1498 1496 1495 1495 1494 1494 1496 1494 1492 1489 1487 1485 1483 1479 1475 1473 1470 1466 1460 1453 1448 1444 1441 1438 1434 1429 1423 1417 1410 1402 1395 1389 1383 1376 1370 1367 1365 1362 1361 1362 1363 1365 1366 1367 1368 1370 1371 1373 1374 1376 1378 1380 1383 1385 1386 1387 1387 1387 1387 1388 1390 1392 1395 1398 1400 1403 1405 1407 1408 1411 1413 1416 1418 1421
1495 1496 1497 1498 1502 1504 1504 1504 1507 1508 1504 1499 1496 1494 1493 1493 1492 1492 1494 1494 1490 1487 1486 1484 1482 1478 1475 1473 1470 1466 1462 1457 1453 1449 1444 1439 1435 1429 1423 1416 1409 1402 1395 1390 1385 1379 1374 1370 1367 1364 1362 1362 1363 1365 1366 1367 1368 1369 1371 1373 1374 1376 1377 1378 1381 1383 1384 1385 1385 1385 1385 1386 1387 1388 1390 1394 1398 1401 1404 1406 1408 1411 1414 1415 1417 1420
1496 1498 1498 1500 1504 1506 1505 1504 1503 1502 1499 1496 1494 1493 1492 1491 1489 1492 1497 1495 1488 1486 1485 1482 1480 1477 1474 1473 1470 1467 1465 1462 1457 1451 1446 1441 1435 1429 1423 1416 1410 1403 1396 1390 1386 1380 1375 1371 1368 1365 1363 1363 1365 1366 1366 1367 1368 1369 1371 1372 1374 1375 1376 1378 1381 1383 1384 1384 1384 1382 1382 1383 1384 1385 1387 1389 1393 1398 1401 1404 1408 1411 1413 1413 1416 1420
1500 1501 1502 1503 1503 1503 1504 1504 1502 1499 1496 1494 1492 1492 1491 1489 1491 1498 1501 1494 1486 1485 1484 1481 1480 1477 1474 1472 1470 1468 1466 1463 1458 1452 1447 1442 1435 1427 1421 1416 1410 1403 1397 1392 1387 1382 1377 1373 1370 1367 1365 1366 1367 1367 1367 1368 1369 1370 1372 1373 1373 1375 1377 1379 1382 1383 1383 1383 1382 1380 1379 1380 1382 1383 1385 1388 1390 1394 1399 1402 1405 1408 1410 1411 1413 1415
1502 1503 1503 1503 1503 1502 1502 1503 1503 1499 1494 1492 1492 1491 1490 1491 1497 1499 1496 1489 1486 1485 1483 1481 1479 1477 1474 1472 1470 1467 1464 1461 1457 1452 1447 1441 1435 1428 1422 1416 1409 1401 1395 1389 1385 1382 1378 1374 1370 1367 1367 1369 1370 1368 1367 1368 1369 1370 1372 1373 1375 1377 1378 1381 1382 1382 1382 1383 1382 1378 1376 1377 1380 1382 1384 1387 1390 1393 1397 1400 1402 1405 1408 1410 1412 1413
1501 1503 1504 1502 1501 1503 1503 1504 1506 1503 1495 1491 1491 1491 1490 1493 1495 1493 1489 1487 1487 1484 1482 1480 1479 1476 1473 1471 1468 1466 1463 1459 1455 1451 1447 1442 1436 1430 1423 1417 1412 1405 1398 1391 1386 1383 1380 1376 1373 1371 1371 1372 1371 1370 1369 1369 1369 1370 1372 1374 1376 1377 1378 1380 1381 1381 1382 1383 1382 1377 1374 1375 1378 1381 1384 1386 1389 1392 1395 1397 1400 1402 1405 1408 1410 1412
1499 1501 1502 1500 1499 1502 1504 1503 1502 1499 1493 1490 1491 1491 1491 1491 1490 1488 1488 1487 1485 1483 1481 1480 1477 1475 1473 1470 1467 1465 1462 1458 1454 1450 1446 1441 1436 1431 1425 1419 1414 1408 1402 1397 1392 1387 1383 1379 1377 1376 1375 1374 1373 1372 1371 1371 1371 1372 1373 1375 1376 1377 1377 1378 1379 1379 1379 1380 1379 1377 1375 1374 1377 1381 1384 1386 1388 1390 1393 1395 1398 1400 1403 1405 1408 1410
1497 1496 1497 1497 1496 1497 1499 1497 1494 1492 1491 1490 1490 1489 1489 1489 1488 1487 1487 1486 1484 1483 1481 1479 1477 1475 1472 1469 1467 1465 1461 1458 1455 1451 1446 1442 1437 1432 1427 1422 1416 1411 1406 1401 1396 1391 1387 1384 1382 1381 1379 1376 1375 1374 1373 1373 1373 1374 1375 1377 1377 1377 1377 1378 1379 1378 1376 1375 1375 1375 1376 1376 1378 1381 1385 1386 1387 1388 1390 1393 1395 1397 1400 1403 1405 1407
1494 1493 1494 1494 1494 1494 1494 1493 1491 1490 1489 1489 1488 1488 1488 1488 1487 1486 1486 1485 1484 1482 1480 1478 1476 1474 1471 1469 1467 1464 1461 1458 1455 1451 1447 1443 1439 1434 1428 1423 1417 1413 1408 1403 1398 1395 1391 1389 1387 1384 1380 1377 1376 1376 1375 1375 1375 1376 1377 1378 1378 1378 1378 1379 1380 1379 1376 1375 1375 1375 1376 1377 1379 1381 1383 1385 1387 1388 1390 1392 1393 1395 1397 1399 1402 1404
1492 1492 1493 1493 1493 1494 1494 1492 1490 1489 1488 1487 1487 1487 1487 1486 1486 1485 1485 1484 1483 1481 1480 1478 1476 1473 1472 1470 1466 1464 1462 1458 1455 1451 1447 1443 1440 1435 1430 1425 1420 1415 1411 1407 1404 1400 1395 1390 1386 1384 1381 1380 1379 1378 1378 1377 1377 1378 1378 1378 1378 1379 1379 1380 1382 1381 1378 1377 1377 1377 1378 1379 1380 1381 1382 1384 1386 1388 1390 1392 1393 1394 1395 1396 1399 1402
1492 1492 1493 1493 1492 1493 1492 1490 1488 1488 1487 1486 1486 1486 1485 1485 1485 1484 1483 1483 1481 1480 1479 1477 1475 1473 1471 1469 1467 1464 1461 1458 1455 1451 1447 1444 1441 1437 1432 1428 1424 1419 1414 1410 1406 1402 1398 1393 1390 1387 1385 1383 1382 1381 1380 1380 1379 1379 1380 1379 1379 1379 1380 1381 1382 1381 1379 1379 1380 1381 1381 1380 1380 1381 1383 1385 1386 1387 1389 1390 1392 1393 1395 1396 1398 1399
1491 1491 1492 1492 1492 1492 1491 1489 1488 1487 1486 1485 1485 1485 1484 1484 1484 1483 1482 1482 1480 1479 1478 1476 1475 1473 1471 1469 1467 1464 1461 1459 1455 1452 1448 1445 1442 1438 1434 1430 1426 1422 1418 1413 1408 1404 1400 1397 1395 1392 1389 1386 1385 1384 1383 1382 1381 1381 1381 1380 1380 1380 1381 1381 1381 1381 1381 1382 1382 1382 1382 1382 1381 1382 1384 1385 1387 1388 1389 1390 1391 1392 1393 1395 1397 1397
1490 1491 1491 1492 1493 1492 1490 1488 1487 1487 1486 1484 1483 1483 1483 1483 1482 1482 1481 1480 1479 1478 1477 1476 1474 1472 1471 1469 1467 1464 1461 1458 1456 1452 1449 1446 1443 1440 1436 1432 1428 1424 1420 1416 1412 1408 1404 1401 1398 1396 1392 1390 1387 1386 1384 1384 1383 1383 1382 1382 1382 1382 1382 1382 1382 1383 1383 1383 1383 1383 1383 1383 1383 1383 1385 1386 1388 1389 1390 1391 1391 1391 1392 1393 1394 1396
1489 1489 1489 1490 1491 1490 1488 1486 1486 1486 1484 1482 1482 1482 1482 1482 1481 1481 1480 1479 1479 1478 1477 1475 1473 1472 1470 1469 1467 1464 1461 1459 1456 1453 1450 1447 1445 1442 1438 1434 1430 1426 1422 1419 1415 1411 1407 1404 1401 1398 1395 1393 1390 1388 1386 1385 1385 1384 1384 1383 1383 1382 1382 1382 1383 1383 1383 1383 1384 1384 1384 1384 1384 1385 1385 1387 1388 1389 1390 1390 1390 1391 1391 1392 1393 1394